�N����,����,�~����,�C��,���x,�C��,����,���ϕ���,�ő�u�ԕ���,�ő厞����,���˗�,�I�_���x,�n�����x,�ő啗���N��,DTYPE
"23/05/19","00:10",0.0,21.2,69.0,1007.4,277.9,1.3,2.5,248.9,0.00,15.3,19.2,"00:06:40",1
"23/05/19","00:20",0.0,21.3,68.5,1007.6,257.9,1.2,2.5,263.7,0.00,15.3,19.2,"00:11:04",1
"23/05/19","00:30",0.0,21.4,67.8,1007.6,254.7,1.6,3.1,249.6,0.00,15.2,19.2,"00:25:04",1
"23/05/19","00:40",0.0,21.4,67.5,1007.8,265.7,1.3,3.4,248.2,0.00,15.2,19.1,"00:31:52",1
"23/05/19","00:50",0.0,21.2,68.2,1007.6,259.9,1.1,2.7,247.3,0.00,15.1,19.3,"00:42:24",1
"23/05/19","01:00",0.0,20.8,69.2,1007.4,305.4,0.3,0.9,259.3,0.00,15.0,19.2,"00:51:20",1
"23/05/19","01:10",0.0,20.6,72.1,1007.4,340.5,1.3,2.1,359.7,0.00,15.4,19.1,"01:02:48",1
"23/05/19","01:20",0.0,19.8,76.6,1007.4,337.0,1.5,2.7,342.5,0.00,15.6,19.1,"01:13:12",1
"23/05/19","01:30",0.2,19.2,80.1,1007.4,319.4,1.2,2.1,300.3,0.00,15.7,19.2,"01:25:52",1
"23/05/19","01:40",0.0,18.9,82.2,1007.1,333.3,1.0,1.9,337.2,0.00,15.8,19.1,"01:30:24",1
"23/05/19","01:50",0.0,18.7,84.0,1007.1,345.2,1.3,1.9,334.9,0.00,16.0,19.1,"01:40:56",1
"23/05/19","02:00",0.2,18.5,85.5,1006.9,331.2,1.2,1.7,315.3,0.00,16.1,19.2,"01:55:12",1
"23/05/19","02:10",0.0,18.2,86.7,1006.4,314.7,1.5,1.9,321.1,0.00,16.0,19.3,"02:08:08",1
"23/05/19","02:20",0.0,18.1,87.6,1006.4,305.7,1.0,1.6,314.2,0.00,16.1,19.0,"02:10:32",1
"23/05/19","02:30",0.0,18.0,88.4,1006.0,291.0,1.3,2.0,308.3,0.00,16.1,19.1,"02:20:02",1
"23/05/19","02:40",0.0,17.9,89.0,1006.0,297.9,1.2,1.9,322.0,0.00,16.1,19.1,"02:31:28",1
"23/05/19","02:50",0.0,17.8,89.5,1005.7,294.3,1.3,2.6,312.3,0.00,16.1,19.0,"02:49:20",1
"23/05/19","03:00",0.0,17.7,90.0,1005.7,303.8,1.6,2.4,310.8,0.00,16.1,19.0,"02:51:36",1
"23/05/19","03:10",0.0,17.7,90.4,1005.5,331.0,1.2,1.8,326.1,0.00,16.1,19.0,"03:02:08",1
"23/05/19","03:20",0.0,17.6,90.6,1005.7,300.6,0.8,1.8,339.1,0.00,16.1,19.1,"03:10:24",1
"23/05/19","03:30",0.0,17.5,90.9,1006.0,318.7,1.3,2.2,322.3,0.00,16.0,19.0,"03:29:12",1
"23/05/19","03:40",0.0,17.5,91.1,1006.0,309.8,1.3,2.4,337.7,0.00,16.1,19.0,"03:38:40",1
"23/05/19","03:50",0.0,17.5,91.3,1006.0,329.2,0.7,1.3,314.1,0.00,16.1,18.9,"03:49:52",1
"23/05/19","04:00",0.0,17.5,91.5,1005.7,314.9,1.2,1.7,317.1,0.00,16.1,18.9,"03:59:52",1
"23/05/19","04:10",0.0,17.4,91.6,1005.7,312.5,1.3,1.8,320.0,0.00,16.1,18.7,"04:06:24",1
"23/05/19","04:20",0.0,17.4,91.7,1005.7,294.2,1.2,1.9,321.8,0.00,16.1,19.0,"04:14:16",1
"23/05/19","04:30",0.0,17.2,91.8,1005.2,321.7,1.5,2.4,320.3,0.00,15.9,19.0,"04:27:04",1
"23/05/19","04:40",0.0,17.3,91.9,1005.5,319.2,1.3,2.1,336.6,0.00,16.0,18.9,"04:30:24",1
"23/05/19","04:50",0.0,17.1,92.0,1005.5,321.5,1.6,3.4,339.8,0.00,15.8,18.9,"04:46:40",1
"23/05/19","05:00",0.0,17.2,92.1,1005.2,323.0,1.1,1.6,333.0,0.00,15.9,19.0,"04:53:20",1
"23/05/19","05:10",0.0,17.1,92.2,1005.2,312.3,1.5,1.8,320.7,0.00,15.9,18.8,"05:00:32",1
"23/05/19","05:20",0.0,17.1,92.3,1004.8,331.1,1.7,2.6,328.1,0.00,15.9,18.7,"05:17:20",1
"23/05/19","05:30",0.0,17.1,92.3,1005.0,308.7,1.6,2.4,311.0,0.00,15.9,18.7,"05:23:52",1
"23/05/19","05:40",0.0,17.2,92.3,1005.0,323.6,1.3,1.9,341.0,0.00,16.0,18.7,"05:36:40",1
"23/05/19","05:50",0.0,17.2,92.3,1004.8,318.5,1.3,1.9,343.1,0.00,16.0,18.7,"05:40:56",1
"23/05/19","06:00",0.0,17.2,92.4,1004.5,313.9,1.0,2.4,334.3,0.00,16.0,18.9,"05:52:56",1
"23/05/19","06:10",0.0,17.3,92.5,1004.5,302.6,1.1,1.9,315.0,0.00,16.1,18.7,"06:08:24",1
"23/05/19","06:20",0.0,17.6,92.5,1004.5,322.9,1.1,1.7,312.4,0.00,16.4,18.7,"06:10:16",1
"23/05/19","06:30",0.0,17.6,92.5,1004.3,302.2,1.1,1.9,338.6,0.00,16.4,18.8,"06:29:28",1
"23/05/19","06:40",0.0,17.7,92.6,1004.5,301.9,1.0,1.7,339.3,0.00,16.5,18.6,"06:33:28",1
"23/05/19","06:50",0.0,17.8,92.6,1004.1,312.6,1.2,2.2,317.2,0.02,16.6,18.7,"06:43:52",1
"23/05/19","07:00",0.0,18.0,92.5,1004.5,329.4,1.5,2.0,333.0,0.03,16.8,18.7,"06:55:52",1
"23/05/19","07:10",0.0,18.2,92.5,1004.1,309.7,1.1,2.2,321.4,0.01,17.0,18.7,"07:00:48",1
"23/05/19","07:20",0.0,18.3,92.4,1004.1,307.6,1.1,2.0,332.5,0.01,17.1,18.7,"07:15:36",1
"23/05/19","07:30",0.2,18.4,92.3,1004.1,285.9,0.8,1.6,326.1,0.02,17.2,18.3,"07:28:56",1
"23/05/19","07:40",0.4,18.6,92.3,1004.5,303.3,1.5,3.3,341.8,0.02,17.4,18.7,"07:39:12",1
"23/05/19","07:50",0.2,18.5,92.4,1004.5,303.4,1.3,2.4,305.5,0.01,17.3,18.6,"07:44:08",1
"23/05/19","08:00",0.4,18.6,92.6,1004.3,306.4,1.0,1.4,308.2,0.05,17.4,18.6,"07:59:20",1
"23/05/19","08:10",0.4,18.8,92.7,1004.1,315.8,1.1,1.6,312.9,0.07,17.6,18.6,"08:01:52",1
"23/05/19","08:20",0.2,19.0,92.5,1003.8,287.3,0.7,1.0,313.1,0.06,17.8,18.7,"08:11:20",1
"23/05/19","08:30",0.4,19.0,92.6,1004.1,347.5,0.8,2.0,349.3,0.04,17.8,18.7,"08:27:36",1
"23/05/19","08:40",0.2,18.9,92.8,1003.8,0.6,0.5,1.2,325.0,0.05,17.7,18.7,"08:32:40",1
"23/05/19","08:50",0.2,18.7,92.9,1003.6,344.4,1.1,1.9,341.5,0.04,17.6,18.6,"08:42:00",1
"23/05/19","09:00",0.4,18.5,93.1,1004.3,319.7,1.0,2.1,336.6,0.00,17.4,18.8,"08:54:24",1
"23/05/19","09:10",0.0,18.5,93.4,1004.8,314.7,1.2,1.8,323.2,0.04,17.5,18.4,"09:06:10",1
"23/05/19","09:20",0.2,18.7,93.6,1004.3,314.2,1.7,2.5,342.3,0.06,17.7,18.8,"09:13:06",1
"23/05/19","09:30",0.4,18.6,93.7,1004.5,303.0,2.0,3.2,313.1,0.04,17.6,18.5,"09:28:30",1
"23/05/19","09:40",0.8,18.3,94.0,1005.2,305.4,2.3,4.0,309.6,0.03,17.4,18.6,"09:32:04",1
"23/05/19","09:50",1.4,18.0,94.2,1004.8,315.6,2.2,3.5,343.0,0.01,17.1,18.5,"09:42:08",1
"23/05/19","10:00",1.2,18.0,94.4,1005.2,320.2,2.2,3.6,341.6,0.01,17.1,18.7,"09:54:00",1
"23/05/19","10:10",1.6,17.8,94.6,1005.5,307.8,1.8,2.8,330.5,0.01,17.0,18.7,"10:00:40",1
"23/05/19","10:20",1.4,17.7,94.8,1005.2,307.4,1.8,2.8,311.2,0.00,16.9,18.7,"10:14:50",1
"23/05/19","10:30",1.6,17.7,94.9,1005.0,300.2,1.5,2.8,311.6,0.01,16.9,18.7,"10:20:08",1
"23/05/19","10:40",1.0,17.8,95.1,1005.2,298.8,1.1,1.7,319.9,0.04,17.0,18.7,"10:32:40",1
"23/05/19","10:50",0.4,17.8,95.2,1005.0,256.1,1.3,2.2,239.8,0.02,17.1,18.6,"10:47:30",1
"23/05/19","11:00",1.2,17.7,95.3,1005.2,282.5,1.3,3.1,309.6,0.01,17.0,18.7,"10:59:34",1
"23/05/19","11:10",0.8,17.6,95.4,1004.8,283.9,0.8,2.0,268.7,0.01,16.9,18.4,"11:00:58",1
"23/05/19","11:20",1.4,17.6,95.5,1004.5,274.0,0.7,1.4,251.1,0.02,16.9,18.4,"11:18:16",1
"23/05/19","11:30",1.4,17.7,95.6,1004.3,258.7,1.1,1.9,251.5,0.05,17.0,18.6,"11:21:14",1
"23/05/19","11:40",1.0,17.9,95.7,1004.3,283.8,1.1,2.4,336.1,0.07,17.2,18.5,"11:35:46",1
"23/05/19","11:50",0.6,18.1,95.9,1004.1,288.8,1.0,1.7,245.7,0.12,17.5,18.4,"11:40:24",1
"23/05/19","12:00",0.6,18.2,95.7,1004.3,267.4,1.0,2.1,254.2,0.08,17.5,18.3,"11:56:56",1
"23/05/19","12:10",0.2,18.2,95.9,1004.1,253.8,1.3,2.2,246.2,0.07,17.6,18.3,"12:04:34",1
"23/05/19","12:20",0.4,18.4,96.0,1004.1,256.7,1.3,2.0,261.9,0.11,17.8,18.5,"12:11:28",1
"23/05/19","12:30",0.2,18.4,96.0,1004.3,252.7,1.6,3.1,239.9,0.10,17.8,18.4,"12:25:08",1
"23/05/19","12:40",0.0,18.5,96.0,1004.1,319.4,0.7,2.0,243.1,0.04,17.9,18.6,"12:30:16",1
"23/05/19","12:50",1.0,18.3,96.0,1004.1,115.5,1.0,2.2,137.6,0.07,17.7,18.7,"12:46:48",1
"23/05/19","13:00",0.8,18.3,96.0,1004.1,150.7,1.0,1.9,122.4,0.11,17.7,18.6,"12:57:28",1
"23/05/19","13:10",0.6,18.1,96.0,1004.3,155.6,1.2,2.2,145.1,0.06,17.5,18.7,"13:08:08",1
"23/05/19","13:20",0.8,18.0,96.1,1003.8,130.1,1.2,2.5,96.8,0.06,17.4,18.3,"13:18:16",1
"23/05/19","13:30",0.4,17.9,96.3,1003.8,110.7,1.1,2.9,136.5,0.07,17.3,18.7,"13:22:08",1
"23/05/19","13:40",0.6,17.6,96.2,1003.8,50.4,0.6,1.9,33.2,0.06,17.0,18.3,"13:38:24",1
"23/05/19","13:50",0.6,17.6,96.4,1003.8,328.6,0.7,2.2,353.2,0.04,17.1,18.5,"13:41:20",1
"23/05/19","14:00",0.6,17.5,96.4,1003.6,336.5,0.8,1.9,349.5,0.02,17.0,18.7,"13:55:28",1
"23/05/19","14:10",0.8,17.5,96.4,1003.8,267.4,0.6,1.1,305.2,0.01,17.0,18.7,"14:01:36",1
"23/05/19","14:20",1.0,17.4,96.3,1003.6,180.1,0.6,1.3,130.5,0.02,16.8,18.5,"14:15:44",1
"23/05/19","14:30",1.4,17.4,96.4,1003.4,196.3,0.6,1.4,200.3,0.02,16.9,18.5,"14:25:04",1
"23/05/19","14:40",1.0,17.5,96.5,1002.6,189.5,0.8,1.7,130.8,0.04,17.0,18.6,"14:39:20",1
"23/05/19","14:50",0.8,17.7,96.5,1002.6,266.5,0.6,1.7,121.9,0.08,17.2,18.5,"14:40:32",1
"23/05/19","15:00",0.4,17.7,96.5,1002.4,252.4,0.7,1.6,302.3,0.05,17.2,18.6,"14:53:28",1
"23/05/19","15:10",0.6,17.7,96.5,1002.4,252.4,0.5,1.3,259.8,0.08,17.2,18.7,"15:06:32",1
"23/05/19","15:20",0.2,17.7,96.6,1001.9,335.8,1.2,2.1,346.8,0.08,17.2,18.7,"15:16:56",1
"23/05/19","15:30",0.0,17.8,96.6,1002.4,246.2,0.8,1.6,264.3,0.07,17.3,18.8,"15:29:04",1
"23/05/19","15:40",0.0,18.2,96.6,1002.2,330.4,0.6,1.3,342.9,0.10,17.7,18.7,"15:31:36",1
"23/05/19","15:50",0.2,18.1,96.6,1002.2,333.2,1.2,2.4,326.6,0.07,17.6,18.5,"15:43:36",1
"23/05/19","16:00",0.0,18.3,96.6,1001.7,327.8,1.1,2.2,322.9,0.09,17.8,18.6,"15:56:40",1
"23/05/19","16:10",0.0,18.0,96.7,1001.7,341.6,1.2,2.5,340.0,0.10,17.5,18.6,"16:08:24",1
"23/05/19","16:20",0.2,18.2,96.7,1001.9,322.4,0.8,1.6,343.1,0.09,17.7,18.7,"16:17:04",1
"23/05/19","16:30",0.4,18.5,96.6,1001.7,317.0,0.7,1.7,323.4,0.12,18.0,18.6,"16:20:24",1
"23/05/19","16:40",0.2,18.3,96.5,1001.7,334.5,1.1,2.1,345.7,0.12,17.8,18.7,"16:38:24",1
"23/05/19","16:50",0.2,18.3,96.6,1001.7,328.8,1.2,2.0,328.6,0.11,17.8,18.8,"16:47:20",1
"23/05/19","17:00",0.0,18.5,96.6,1001.7,329.7,1.1,2.4,343.5,0.11,18.0,18.5,"16:54:00",1
"23/05/19","17:10",0.0,18.9,96.5,1001.5,306.8,0.7,1.3,315.6,0.15,18.4,18.6,"17:02:56",1
"23/05/19","17:20",0.0,18.9,96.3,1001.2,301.9,0.5,1.6,320.3,0.12,18.3,18.5,"17:10:56",1
"23/05/19","17:30",0.0,18.9,96.1,1001.0,185.3,0.6,1.3,132.0,0.12,18.3,18.6,"17:27:04",1
"23/05/19","17:40",0.2,18.7,95.7,1001.2,190.5,0.6,1.6,167.8,0.10,18.0,18.5,"17:35:12",1
"23/05/19","17:50",0.0,18.6,95.8,1001.2,216.6,1.1,2.4,191.0,0.08,18.0,18.7,"17:42:00",1
"23/05/19","18:00",0.0,18.3,95.7,1001.0,191.1,0.8,1.7,117.5,0.04,17.6,18.7,"17:51:44",1
"23/05/19","18:10",0.0,18.3,95.7,1000.5,191.0,1.1,1.8,181.8,0.03,17.6,18.8,"18:02:48",1
"23/05/19","18:20",0.0,18.3,95.7,1000.8,221.5,0.7,1.6,203.4,0.02,17.6,18.7,"18:10:16",1
"23/05/19","18:30",0.0,18.5,95.7,1000.5,271.5,1.0,1.6,245.6,0.03,17.8,18.7,"18:24:56",1
"23/05/19","18:40",0.0,18.4,95.7,1000.5,302.4,1.2,1.8,330.1,0.02,17.7,18.7,"18:38:56",1
"23/05/19","18:50",0.0,18.4,95.7,1000.3,311.6,1.3,1.8,326.1,0.02,17.7,18.8,"18:43:36",1
"23/05/19","19:00",0.0,18.4,95.7,1000.3,284.5,1.1,1.9,256.0,0.02,17.7,18.7,"18:54:56",1
"23/05/19","19:10",0.0,18.4,95.7,1000.5,270.4,1.1,2.0,240.1,0.01,17.7,18.8,"19:05:52",1
"23/05/19","19:20",0.0,18.3,95.7,1000.0,277.6,1.1,1.6,253.5,0.00,17.6,18.6,"19:12:32",1
"23/05/19","19:30",0.0,18.3,95.8,1000.3,278.7,1.2,1.8,268.2,0.00,17.7,18.8,"19:21:04",1
"23/05/19","19:40",0.0,18.3,95.8,1000.0,282.6,1.2,1.9,267.1,0.00,17.7,18.7,"19:36:08",1
"23/05/19","19:50",0.0,18.2,95.8,1000.3,300.9,1.3,2.1,317.1,0.00,17.6,18.7,"19:47:20",1
"23/05/19","20:00",0.0,18.1,95.9,1000.5,318.6,1.5,1.9,313.3,0.00,17.5,18.7,"19:53:20",1
"23/05/19","20:10",0.0,17.9,96.0,1000.8,319.6,1.3,2.2,317.6,0.00,17.3,18.7,"20:00:24",1
"23/05/19","20:20",0.0,17.8,96.1,1001.0,315.7,1.5,2.2,325.8,0.00,17.2,18.7,"20:13:52",1
"23/05/19","20:30",0.0,17.7,96.2,1000.5,316.6,1.6,2.2,307.3,0.00,17.1,18.7,"20:22:48",1
"23/05/19","20:40",0.0,17.7,96.2,1001.0,311.3,1.5,2.1,325.1,0.00,17.1,18.5,"20:33:28",1
"23/05/19","20:50",0.0,17.6,96.3,1001.0,310.7,1.1,2.0,319.5,0.00,17.0,18.7,"20:40:02",1
"23/05/19","21:00",0.0,17.6,96.4,1001.2,312.4,1.6,2.2,328.6,0.00,17.1,18.7,"20:53:44",1
"23/05/19","21:10",0.0,17.7,96.4,1001.2,289.9,0.5,1.6,315.7,0.00,17.2,18.7,"21:01:04",1
"23/05/19","21:20",0.0,17.7,96.4,1001.2,301.5,1.1,1.8,339.5,0.00,17.2,18.6,"21:18:32",1
"23/05/19","21:30",0.0,17.7,96.5,1001.2,334.1,1.1,1.8,337.0,0.00,17.2,18.6,"21:27:04",1
"23/05/19","21:40",0.0,17.6,96.5,1001.2,320.4,1.2,1.7,339.2,0.00,17.1,18.6,"21:30:08",1
"23/05/19","21:50",0.0,17.5,96.5,1001.2,287.1,1.2,1.8,327.8,0.00,17.0,18.7,"21:47:52",1
"23/05/19","22:00",0.0,17.4,96.6,1001.5,304.2,1.0,1.2,314.6,0.00,16.9,18.5,"21:52:32",1
"23/05/19","22:10",0.0,17.5,96.7,1001.7,317.2,1.2,1.8,322.0,0.00,17.0,18.5,"22:06:20",1
"23/05/19","22:20",0.0,17.5,96.7,1001.5,332.9,1.5,2.5,321.8,0.00,17.0,18.6,"22:10:02",1
"23/05/19","22:30",0.0,17.4,96.7,1001.7,288.5,1.0,2.2,317.7,0.00,16.9,18.7,"22:20:56",1
"23/05/19","22:40",0.0,17.3,96.7,1001.5,305.8,0.8,1.4,326.6,0.00,16.8,18.7,"22:36:24",1
"23/05/19","22:50",0.0,17.3,96.8,1001.7,291.3,1.0,1.2,324.1,0.00,16.8,18.4,"22:40:40",1
"23/05/19","23:00",0.0,17.2,96.8,1001.2,309.5,1.3,2.0,323.1,0.00,16.7,18.6,"22:59:44",1
"23/05/19","23:10",0.0,17.2,96.9,1001.5,322.4,1.3,2.0,312.3,0.00,16.7,18.5,"23:00:40",1
"23/05/19","23:20",0.0,17.3,97.0,1001.7,327.0,2.2,3.6,321.8,0.00,16.9,18.4,"23:17:20",1
"23/05/19","23:30",0.0,17.4,97.0,1001.5,333.7,2.3,3.5,331.7,0.00,17.0,18.6,"23:23:28",1
"23/05/19","23:40",0.0,17.5,96.9,1001.2,333.2,1.7,3.3,310.5,0.00,17.0,18.6,"23:36:32",1
"23/05/19","23:50",0.0,17.5,96.9,1001.7,330.8,2.3,3.5,335.1,0.00,17.0,18.6,"23:42:40",1
"23/05/19","24:00",0.0,17.5,96.8,1001.5,323.6,1.8,2.8,320.9,0.00,17.0,18.3,"23:56:08",1
